Location: Ay?beleni
(36.6500°N, 30.3000°E)
Time: 13:40:58
(UTC+00:00)

USA 234 - Visible Passes

Search period start: 06 August 2020 00:00
Search period end: 16 August 2020 00:00
Orbit: 1101 x 1106 km, 123.0° (Epoch: 02 August)

Date Brightness Start Highest point End Pass type
(mag) Time Alt. Az. Time Alt. Az. Time Alt. Az.
06 Aug 4.5 18:13:05 11° E 18:18:26 30° NNE 18:23:58 10° NNW visible
06 Aug 3.1 20:00:26 77° SSE 20:00:56 84° SW 20:07:31 10° NW visible
06 Aug 5.4 21:47:46 13° W 21:47:46 13° W 21:48:41 10° W visible
07 Aug 5.0 17:31:52 10° ENE 17:36:21 20° NNE 17:40:50 10° NNW visible
07 Aug 3.7 19:15:55 36° E 19:18:20 52° NE 19:24:39 10° NW visible
07 Aug 4.3 21:03:16 34° W 21:03:16 34° W 21:07:28 10° WNW visible
08 Aug 4.5 18:31:25 14° E 18:36:00 31° NNE 18:41:33 10° NNW visible
08 Aug 3.1 20:18:46 81° W 20:18:46 81° W 20:25:05 10° NW visible
08 Aug 5.5 22:06:06 10° W 22:06:06 10° W 22:06:13 10° W visible
09 Aug 5.1 17:49:25 10° ENE 17:53:55 20° NNE 17:58:25 10° NNW visible
09 Aug 3.7 19:34:14 43° E 19:35:55 53° NE 19:42:14 10° NW visible
09 Aug 4.6 21:21:35 29° W 21:21:35 29° W 21:25:03 10° WNW visible
10 Aug 4.5 18:49:43 17° ENE 18:53:34 31° NNE 18:59:07 10° NNW visible
10 Aug 3.4 20:37:03 67° WNW 20:37:03 67° WNW 20:42:39 10° NW visible
11 Aug 5.1 18:06:58 10° ENE 18:11:29 20° NNE 18:16:00 10° NNW visible
11 Aug 3.6 19:52:31 49° ENE 19:53:29 53° NE 19:59:48 10° NW visible
11 Aug 4.8 21:39:52 24° WNW 21:39:52 24° WNW 21:42:36 10° WNW visible
12 Aug 5.3 17:26:08 10° NE 17:29:36 15° N 17:33:04 10° NNW visible
12 Aug 4.5 19:07:59 21° ENE 19:11:09 31° NNE 19:16:43 10° NNW visible
12 Aug 3.7 20:55:19 54° NW 20:55:19 54° NW 21:00:15 10° NW visible
13 Aug 5.1 18:24:32 10° ENE 18:29:03 20° NNE 18:33:35 10° NNW visible
13 Aug 3.6 20:10:47 53° NE 20:11:04 53° NE 20:17:22 10° NW visible
13 Aug 5.0 21:58:07 20° WNW 21:58:07 20° WNW 22:00:11 10° WNW visible
14 Aug 5.4 17:43:42 10° NE 17:47:11 15° N 17:50:39 10° NNW visible
14 Aug 4.5 19:26:13 24° ENE 19:28:43 31° NNE 19:34:17 10° NNW visible
14 Aug 4.1 21:13:34 44° NW 21:13:34 44° NW 21:17:49 10° NW visible
15 Aug 5.1 18:42:05 10° ENE 18:46:37 20° NNE 18:51:09 10° NNW visible
15 Aug 3.7 20:29:00 53° NNE 20:29:00 53° NNE 20:34:58 10° NW visible
15 Aug 5.2 22:16:21 17° WNW 22:16:21 17° WNW 22:17:45 10° WNW visible
